Simultaneous Nadir Overpasses (SNOs) Predictions

Prediction of SNOs between NOAA-15 and METOP-C Satellite Orbit:

Table of predicted SNOs for the next 14.0 days since TLE Epoch: 3/27/2019
Index Date (NOAA-15) Time (NOAA-15) Lat,Lon (NOAA-15) SZA (NOAA-15 ) Date (METOP-C) Time (METOP-C) Lat,Lon (METOP-C) SZA (METOP-C ) Distance(km) Time Diff (sec)
1 04/10/2019 03:21:32 -80.78, -17.59 105.61 04/10/2019 03:20:21 -80.77, -17.69 105.65 1.81 71
2 04/10/2019 04:12:03 80.77, 149.87 74.39 04/10/2019 04:11:02 80.77, 149.69 74.35 3.27 61
3 04/10/2019 05:02:35 -80.78, -42.93 105.63 04/10/2019 05:01:42 -80.78, -42.81 105.64 2.15 53
4 04/10/2019 05:53:06 80.78, 124.53 74.36 04/10/2019 05:52:23 80.79, 124.57 74.36 1.20 43
5 04/10/2019 06:43:38 -80.79, -68.26 105.66 04/10/2019 06:43:04 -80.78, -68.27 105.68 1.09 34
6 04/10/2019 07:34:09 80.78, 99.20 74.33 04/10/2019 07:33:45 80.78, 99.10 74.31 1.75 24
7 04/10/2019 08:24:40 -80.77, -93.24 105.68 04/10/2019 08:24:25 -80.79, -93.39 105.68 3.44 15
8 04/10/2019 09:15:12 80.79, 73.86 74.31 04/10/2019 09:15:06 80.79, 73.98 74.32 2.26 6
9 04/10/2019 10:05:44 -80.79,-118.92 105.72 04/10/2019 10:05:47 -80.78,-118.86 105.72 1.69 3
10 04/10/2019 10:56:15 80.79, 48.52 74.28 04/10/2019 10:56:28 80.78, 48.51 74.28 0.66 13
11 04/10/2019 11:46:46 -80.78,-143.90 105.73 04/10/2019 11:47:08 -80.79,-143.98 105.72 2.26 22
12 04/10/2019 12:37:18 80.79, 23.18 74.25 04/10/2019 12:37:50 80.78, 23.04 74.23 3.18 32
13 04/10/2019 13:27:50 -80.80,-169.59 105.78 04/10/2019 13:28:30 -80.79,-169.45 105.76 2.88 40




NCC Satellite Simultaneous Nadir Overpasses (SNOs) Prediction Service
